Weather in Hay River

Canada     60°49′48″N   115°46′49″W
temp.,
°C
wind,
m/s
gust,
m/s
humid.,
%
clouds,
%
prec.,
mm/h
press.,
hPa
HPBL,
m
26 february, fri
fri2623:00−33ssw11100100 0.1 101919
02:00−34w11100100 0.0 102119
05:00−35wsw1210079 0.0 102219
08:00−36w119823 0.0 102319
11:00−30wsw128759 0.0 1023239
14:00−25wnw127769 0.0 1023408
17:00−26nw128777 0.0 1023127
20:00−28w129199 0.0 102319
27 february, sat
sat2723:00−28w229399 0.0 102259
02:00−29w2397100 0.0 102346
05:00−29w229796 0.0 102256
08:00−31wnw229760 0.0 102219
11:00−27nw249237 0.0 1022334
14:00−26n348887 0.0 1023431
17:00−27nne249393 0.0 1024468
20:00−31ene12100100 0.0 102619
28 february, sun
sun2823:00−33ese229981 0.0 102719
02:00−34ese23952 0.0 102740
05:00−35ese259217 0.0 102583
08:00−34ese279046 0.0 1023139
11:00−26se378057 0.0 1020319
14:00−21se4878100 0.0 1016402
17:00−19ese51182100 0.0 1012360
20:00−19se51295100 0.9 1008400
1 march, mon
mon123:00−18sse3995100 1.3 1005337
02:00−17se2497100 0.7 1004192
05:00−18w2298100 0.8 100425
08:00−20wnw3798100 0.1 1005232
11:00−19nw4795100 0.1 1005369
14:00−19nw4792100 0.1 1005489
17:00−19nw3592100 0.1 1005600
20:00−21nw4896100 0.1 1006352
2 march, tue
tue223:00−26wnw369899 0.1 1007167
02:00−29w359848 0.0 1008114
05:00−30w229737 0.0 100923
08:00−29sw1194100 0.0 100819
11:00−24ese1287100 0.0 1005232
14:00−20ese2389100 0.1 1004447
17:00−19e2394100 0.3 1002383
20:00−21ne1299100 0.2 100149